| time (UTC) | temp F | wind direction | speed MPH | gust MPH | rain 1hr in | rain 24hr in | rain mn in | humidity % | barometer mb |
| 20260901031737 | 67 | 155 | 0.0 | 0.0 | 0.00 | 0.08 | 0.08 | 99 | 1016.6 |
| 20260901031233 | 67 | 154 | 0.0 | 0.0 | 0.00 | 0.08 | 0.08 | 99 | 1016.6 |
| 20260901030728 | 67 | 156 | 0.0 | 0.0 | 0.00 | 0.08 | 0.08 | 99 | 1016.6 |
| 20260901030223 | 67 | 158 | 0.0 | 0.0 | 0.00 | 0.08 | 0.08 | 99 | 1016.5 |
| 20260901025722 | 67 | 157 | 0.0 | 0.0 | 0.00 | 0.08 | 0.08 | 99 | 1016.6 |
| 20260901025217 | 67 | 154 | 0.0 | 0.0 | 0.00 | 0.08 | 0.08 | 99 | 1016.7 |
| 20260901024711 | 66 | 159 | 0.0 | 0.0 | 0.00 | 0.08 | 0.08 | 99 | 1016.7 |
| 20260901024210 | 66 | 152 | 0.0 | 0.0 | 0.00 | 0.08 | 0.08 | 99 | 1016.9 |
| 20260901023709 | 66 | 152 | 0.0 | 0.0 | 0.00 | 0.08 | 0.08 | 99 | 1016.8 |
| 20260901023204 | 66 | 151 | 0.0 | 0.0 | 0.00 | 0.08 | 0.08 | 99 | 1016.6 |
| 20260901022659 | 66 | 151 | 0.0 | 0.0 | 0.00 | 0.08 | 0.08 | 99 | 1016.6 |
| 20260901022154 | 66 | 151 | 0.0 | 0.0 | 0.00 | 0.08 | 0.08 | 99 | 1016.8 |
| 20260901021650 | 66 | 151 | 0.0 | 0.0 | 0.00 | 0.08 | 0.08 | 99 | 1016.7 |
| 20260901021145 | 66 | 151 | 0.0 | 0.0 | 0.00 | 0.08 | 0.08 | 99 | 1016.6 |
| 20260901020641 | 66 | 151 | 0.0 | 0.0 | 0.00 | 0.08 | 0.08 | 99 | 1016.6 |
| 20260901020136 | 66 | 151 | 0.0 | 0.0 | 0.00 | 0.08 | 0.08 | 99 | 1016.7 |
| 20260901015631 | 66 | 150 | 0.0 | 0.0 | 0.00 | 0.08 | 0.08 | 99 | 1016.9 |
| 20260901015131 | 66 | 154 | 0.0 | 0.0 | 0.00 | 0.08 | 0.08 | 99 | 1017.1 |
| 20260901014631 | 66 | 154 | 0.0 | 0.0 | 0.00 | 0.08 | 0.08 | 99 | 1017.1 |
| 20260901014128 | 66 | 154 | 0.0 | 0.0 | 0.00 | 0.08 | 0.08 | 99 | 1017.2 |
| 20260901013623 | 66 | 154 | 0.0 | 0.0 | 0.00 | 0.08 | 0.08 | 99 | 1017.1 |
| 20260901013119 | 66 | 154 | 0.0 | 0.0 | 0.00 | 0.08 | 0.08 | 99 | 1017.0 |
| 20260901012619 | 66 | 154 | 0.0 | 0.0 | 0.00 | 0.08 | 0.08 | 99 | 1017.3 |
| 20260901012114 | 66 | 154 | 0.0 | 0.0 | 0.00 | 0.08 | 0.08 | 99 | 1017.1 |
| 20260901011610 | 66 | 154 | 0.0 | 0.0 | 0.00 | 0.08 | 0.08 | 99 | 1017.0 |
| 20260901011108 | 66 | 154 | 0.0 | 0.0 | 0.00 | 0.08 | 0.08 | 99 | 1017.1 |
| 20260901010604 | 66 | 155 | 0.0 | 0.0 | 0.00 | 0.08 | 0.08 | 99 | 1016.9 |
| 20260901005558 | 66 | 154 | 0.0 | 0.0 | 0.00 | 0.08 | 0.08 | 99 | 1017.1 |
| 20260901005053 | 66 | 154 | 0.0 | 0.0 | 0.00 | 0.08 | 0.08 | 99 | 1017.2 |
| 20260901004552 | 66 | 154 | 0.0 | 0.0 | 0.00 | 0.08 | 0.08 | 99 | 1017.3 |
| 20260901004047 | 66 | 154 | 0.0 | 0.0 | 0.00 | 0.08 | 0.08 | 99 | 1016.9 |
| 20260901003542 | 66 | 154 | 0.0 | 0.0 | 0.00 | 0.08 | 0.08 | 98 | 1017.1 |
| 20260901003040 | 66 | 154 | 0.0 | 0.0 | 0.00 | 0.08 | 0.08 | 98 | 1017.1 |
| 20260901002540 | 66 | 154 | 0.0 | 0.0 | 0.00 | 0.08 | 0.08 | 98 | 1016.8 |
| 20260901002035 | 66 | 154 | 0.0 | 0.0 | 0.00 | 0.08 | 0.08 | 98 | 1016.9 |
| 20260901001530 | 66 | 154 | 0.0 | 0.0 | 0.00 | 0.08 | 0.08 | 98 | 1016.9 |
| 20260901001025 | 66 | 154 | 0.0 | 0.0 | 0.00 | 0.08 | 0.08 | 98 | 1016.9 |
| 20260901000520 | 66 | 154 | 0.0 | 0.0 | 0.00 | 0.08 | 0.08 | 98 | 1016.9 |
| 20260901000016 | 66 | 157 | 0.0 | 0.0 | 0.00 | 0.08 | 0.08 | 98 | 1016.8 |
| 20260831235509 | 66 | 157 | 0.0 | 0.0 | 0.00 | 0.08 | 0.08 | 98 | 1016.9 |
| 20260831235005 | 66 | 156 | 0.0 | 0.0 | 0.00 | 0.08 | 0.08 | 98 | 1016.8 |
| 20260831234459 | 66 | 156 | 0.0 | 0.0 | 0.00 | 0.08 | 0.08 | 98 | 1016.8 |
| 20260831233954 | 67 | 156 | 0.0 | 0.0 | 0.00 | 0.08 | 0.08 | 98 | 1016.6 |
| 20260831233449 | 67 | 156 | 0.0 | 0.0 | 0.00 | 0.08 | 0.08 | 98 | 1016.9 |
| 20260831232945 | 67 | 156 | 0.0 | 0.0 | 0.00 | 0.08 | 0.08 | 98 | 1016.9 |
| 20260831232441 | 67 | 157 | 0.0 | 0.0 | 0.00 | 0.08 | 0.08 | 98 | 1016.9 |
| 20260831231936 | 67 | 157 | 0.0 | 0.0 | 0.00 | 0.08 | 0.08 | 98 | 1016.9 |
| 20260831231432 | 67 | 157 | 0.0 | 0.0 | 0.00 | 0.08 | 0.08 | 98 | 1017.0 |
| 20260831230928 | 67 | 157 | 0.0 | 0.0 | 0.00 | 0.08 | 0.08 | 98 | 1017.2 |
| 20260831230423 | 67 | 157 | 0.0 | 0.0 | 0.00 | 0.08 | 0.08 | 98 | 1017.0 |
| 20260831225917 | 67 | 157 | 0.0 | 0.0 | 0.00 | 0.08 | 0.08 | 98 | 1016.9 |
| 20260831225413 | 67 | 157 | 0.0 | 0.0 | 0.00 | 0.08 | 0.08 | 98 | 1017.0 |
| 20260831224908 | 67 | 162 | 0.0 | 0.0 | 0.00 | 0.08 | 0.08 | 98 | 1017.1 |
| 20260831224407 | 67 | 162 | 0.0 | 0.0 | 0.00 | 0.08 | 0.08 | 98 | 1017.2 |
| 20260831223902 | 67 | 161 | 0.0 | 0.0 | 0.07 | 0.08 | 0.08 | 98 | 1017.1 |
| 20260831223358 | 67 | 162 | 0.0 | 0.0 | 0.07 | 0.08 | 0.08 | 98 | 1017.1 |
| 20260831222855 | 67 | 162 | 0.0 | 0.0 | 0.00 | 0.07 | 0.07 | 98 | 1017.2 |
| 20260831222350 | 67 | 161 | 0.0 | 0.0 | 0.00 | 0.07 | 0.07 | 97 | 1017.3 |
| 20260831221845 | 67 | 162 | 0.0 | 0.0 | 0.00 | 0.07 | 0.07 | 97 | 1017.2 |
| 20260831221340 | 67 | 158 | 0.0 | 0.0 | 0.00 | 0.07 | 0.07 | 97 | 1017.3 |
| 20260831220835 | 67 | 158 | 0.0 | 0.0 | 0.00 | 0.07 | 0.07 | 97 | 1017.1 |
| 20260831220331 | 67 | 158 | 0.0 | 0.0 | 0.07 | 0.07 | 0.07 | 97 | 1017.1 |
| 20260831215826 | 67 | 155 | 0.0 | 0.0 | 0.07 | 0.07 | 0.07 | 97 | 1017.6 |
| 20260831215322 | 67 | 154 | 0.0 | 0.0 | 0.00 | 0.06 | 0.06 | 97 | 1017.4 |
| 20260831214818 | 67 | 156 | 0.0 | 0.0 | 0.00 | 0.06 | 0.06 | 97 | 1017.6 |
| 20260831214315 | 67 | 156 | 0.0 | 0.0 | 0.00 | 0.06 | 0.06 | 97 | 1017.3 |
| 20260831213810 | 67 | 156 | 0.0 | 0.0 | 0.00 | 0.06 | 0.06 | 97 | 1017.6 |
| 20260831213307 | 67 | 156 | 0.0 | 0.0 | 0.00 | 0.06 | 0.06 | 97 | 1017.4 |
| 20260831212802 | 67 | 156 | 0.0 | 0.0 | 0.00 | 0.06 | 0.06 | 97 | 1017.6 |
| 20260831212259 | 67 | 156 | 0.0 | 0.0 | 0.05 | 0.06 | 0.06 | 97 | 1017.6 |
| 20260831211756 | 67 | 156 | 0.0 | 0.0 | 0.05 | 0.06 | 0.06 | 97 | 1017.4 |
| 20260831211252 | 67 | 152 | 0.0 | 0.0 | 0.00 | 0.05 | 0.05 | 97 | 1017.8 |
| 20260831210746 | 67 | 153 | 0.0 | 0.0 | 0.00 | 0.05 | 0.05 | 97 | 1017.7 |
| 20260831210243 | 67 | 152 | 0.0 | 0.0 | 0.00 | 0.05 | 0.05 | 97 | 1017.6 |
| 20260831205742 | 67 | 150 | 0.0 | 0.0 | 0.00 | 0.05 | 0.05 | 97 | 1017.6 |
| 20260831205238 | 67 | 154 | 0.0 | 0.0 | 0.00 | 0.05 | 0.05 | 97 | 1017.8 |
| 20260831204737 | 67 | 156 | 0.0 | 0.0 | 0.00 | 0.05 | 0.05 | 97 | 1017.9 |
| 20260831204237 | 67 | 156 | 0.0 | 0.0 | 0.00 | 0.05 | 0.05 | 96 | 1018.2 |
| 20260831203736 | 67 | 156 | 0.0 | 0.0 | 0.00 | 0.05 | 0.05 | 96 | 1018.1 |
| 20260831203231 | 67 | 156 | 0.0 | 0.0 | 0.00 | 0.05 | 0.05 | 96 | 1018.1 |
| 20260831202729 | 67 | 156 | 0.0 | 0.0 | 0.00 | 0.05 | 0.05 | 96 | 1018.2 |
| 20260831202224 | 67 | 157 | 0.0 | 0.0 | 0.00 | 0.05 | 0.05 | 96 | 1018.1 |
| 20260831201719 | 67 | 155 | 0.0 | 0.0 | 0.00 | 0.05 | 0.05 | 96 | 1018.0 |
| 20260831201213 | 67 | 149 | 0.0 | 0.0 | 0.00 | 0.05 | 0.05 | 96 | 1018.0 |
| 20260831200708 | 67 | 149 | 0.0 | 0.0 | 0.00 | 0.05 | 0.05 | 96 | 1018.1 |
| 20260831200203 | 67 | 149 | 0.0 | 0.0 | 0.00 | 0.05 | 0.05 | 96 | 1018.2 |
| 20260831195658 | 67 | 149 | 0.0 | 0.0 | 0.00 | 0.05 | 0.05 | 97 | 1018.0 |
| 20260831195153 | 67 | 149 | 0.0 | 0.0 | 0.00 | 0.05 | 0.05 | 96 | 1018.1 |
| 20260831194648 | 67 | 149 | 0.0 | 0.0 | 0.00 | 0.05 | 0.05 | 96 | 1017.9 |
| 20260831194143 | 67 | 149 | 0.0 | 0.0 | 0.00 | 0.05 | 0.05 | 96 | 1018.0 |
| 20260831193637 | 66 | 149 | 0.0 | 0.0 | 0.00 | 0.05 | 0.05 | 96 | 1018.0 |
| 20260831193133 | 66 | 153 | 0.0 | 0.0 | 0.00 | 0.05 | 0.05 | 96 | 1018.1 |
| 20260831192628 | 66 | 156 | 0.0 | 0.0 | 0.00 | 0.05 | 0.05 | 96 | 1018.3 |
| 20260831192124 | 66 | 156 | 0.0 | 0.0 | 0.00 | 0.05 | 0.05 | 96 | 1018.2 |
| 20260831191619 | 66 | 156 | 0.0 | 0.0 | 0.00 | 0.05 | 0.05 | 96 | 1018.4 |
| 20260831191115 | 66 | 154 | 0.0 | 0.0 | 0.00 | 0.05 | 0.05 | 96 | 1018.0 |
| 20260831190610 | 66 | 153 | 0.0 | 0.0 | 0.00 | 0.05 | 0.05 | 96 | 1018.5 |
| 20260831190109 | 66 | 157 | 0.0 | 0.0 | 0.00 | 0.05 | 0.05 | 96 | 1018.3 |
| 20260831185605 | 66 | 152 | 0.0 | 0.0 | 0.00 | 0.05 | 0.05 | 96 | 1018.4 |
| 20260831185101 | 66 | 153 | 0.0 | 0.0 | 0.00 | 0.05 | 0.05 | 96 | 1018.8 |
| 20260831184600 | 67 | 156 | 0.0 | 0.0 | 0.00 | 0.05 | 0.05 | 97 | 1018.8 |
| 20260831184055 | 67 | 154 | 0.0 | 0.0 | 0.00 | 0.05 | 0.05 | 97 | 1018.6 |
| 20260831183555 | 67 | 157 | 0.0 | 0.0 | 0.00 | 0.05 | 0.05 | 97 | 1018.5 |
| 20260831183054 | 67 | 151 | 0.0 | 0.0 | 0.00 | 0.05 | 0.05 | 97 | 1019.1 |
| 20260831182548 | 67 | 156 | 0.0 | 0.0 | 0.00 | 0.05 | 0.05 | 97 | 1018.9 |
| 20260831182044 | 67 | 156 | 0.0 | 0.0 | 0.00 | 0.05 | 0.05 | 97 | 1018.8 |
| 20260831181544 | 67 | 157 | 0.0 | 0.0 | 0.00 | 0.05 | 0.05 | 97 | 1018.7 |
| 20260831181044 | 66 | 163 | 0.0 | 0.0 | 0.00 | 0.05 | 0.05 | 97 | 1018.6 |
| 20260831180539 | 67 | 154 | 0.0 | 0.0 | 0.00 | 0.05 | 0.05 | 98 | 1018.8 |
| 20260831180034 | 66 | 154 | 0.0 | 0.0 | 0.00 | 0.05 | 0.05 | 98 | 1018.7 |
| 20260831175529 | 66 | 152 | 0.0 | 0.0 | 0.00 | 0.05 | 0.05 | 98 | 1019.0 |
| 20260831175027 | 66 | 156 | 0.0 | 0.0 | 0.00 | 0.05 | 0.05 | 98 | 1019.1 |
| 20260831174526 | 66 | 162 | 0.0 | 0.0 | 0.00 | 0.05 | 0.05 | 98 | 1019.1 |
| 20260831174020 | 65 | 141 | 1.0 | 1.0 | 0.00 | 0.05 | 0.05 | 98 | 1019.3 |
| 20260831173519 | 65 | 154 | 0.0 | 1.0 | 0.00 | 0.05 | 0.05 | 98 | 1019.4 |
| 20260831173015 | 65 | 155 | 0.0 | 0.0 | 0.00 | 0.05 | 0.05 | 98 | 1019.0 |
| 20260831172510 | 65 | 156 | 0.0 | 0.0 | 0.00 | 0.05 | 0.05 | 98 | 1019.3 |
| 20260831172005 | 65 | 155 | 0.0 | 0.0 | 0.00 | 0.05 | 0.05 | 98 | 1019.2 |
| 20260831171501 | 65 | 154 | 0.0 | 0.0 | 0.00 | 0.05 | 0.05 | 98 | 1019.4 |
| 20260831170958 | 65 | 156 | 0.0 | 0.0 | 0.00 | 0.05 | 0.05 | 98 | 1019.3 |
| 20260831170453 | 65 | 153 | 0.0 | 0.0 | 0.00 | 0.05 | 0.05 | 98 | 1019.4 |
| 20260831165950 | 65 | 156 | 0.0 | 0.0 | 0.00 | 0.05 | 0.05 | 98 | 1019.3 |
| 20260831165445 | 65 | 156 | 0.0 | 0.0 | 0.00 | 0.05 | 0.05 | 98 | 1019.4 |
| 20260831164942 | 65 | 153 | 0.0 | 0.0 | 0.00 | 0.05 | 0.05 | 98 | 1019.6 |
| 20260831164433 | 65 | 156 | 0.0 | 0.0 | 0.00 | 0.05 | 0.05 | 98 | 1019.8 |
| 20260831163932 | 64 | 153 | 0.0 | 0.0 | 0.07 | 0.05 | 0.05 | 98 | 1019.7 |
| 20260831163423 | 64 | 155 | 0.0 | 0.0 | 0.07 | 0.05 | 0.05 | 98 | 1019.6 |
| 20260831162921 | 64 | 156 | 0.0 | 0.0 | 0.07 | 0.05 | 0.05 | 98 | 1019.9 |
| 20260831162417 | 64 | 160 | 0.0 | 0.0 | 0.00 | 0.04 | 0.04 | 98 | 1019.8 |
| 20260831161915 | 64 | 154 | 0.0 | 0.0 | 0.00 | 0.04 | 0.04 | 97 | 1019.9 |
| 20260831161412 | 65 | 154 | 0.0 | 0.0 | 0.00 | 0.04 | 0.04 | 97 | 1020.0 |
| 20260831160907 | 65 | 156 | 0.0 | 0.0 | 0.00 | 0.04 | 0.04 | 97 | 1020.1 |
| 20260831160402 | 65 | 155 | 0.0 | 0.0 | 0.00 | 0.04 | 0.04 | 97 | 1020.0 |
| 20260831155857 | 65 | 158 | 0.0 | 0.0 | 0.00 | 0.04 | 0.04 | 98 | 1020.1 |
| 20260831155356 | 65 | 157 | 0.0 | 0.0 | 0.00 | 0.04 | 0.04 | 97 | 1020.0 |
| 20260831154852 | 65 | 157 | 0.0 | 0.0 | 0.05 | 0.04 | 0.04 | 97 | 1020.1 |
| 20260831154349 | 65 | 158 | 0.0 | 0.0 | 0.05 | 0.04 | 0.04 | 97 | 1019.8 |
| 20260831153847 | 65 | 155 | 0.0 | 1.0 | 0.00 | 0.03 | 0.03 | 97 | 1020.1 |
| 20260831153343 | 65 | 158 | 0.0 | 0.0 | 0.07 | 0.03 | 0.03 | 97 | 1020.0 |
| 20260831152839 | 64 | 158 | 0.0 | 0.0 | 0.07 | 0.03 | 0.03 | 97 | 1019.8 |
| 20260831152334 | 64 | 157 | 0.0 | 0.0 | 0.00 | 0.02 | 0.02 | 97 | 1019.7 |
| 20260831151829 | 64 | 157 | 0.0 | 0.0 | 0.00 | 0.02 | 0.02 | 97 | 1019.9 |
| 20260831151328 | 64 | 157 | 0.0 | 0.0 | 0.00 | 0.02 | 0.02 | 97 | 1020.0 |
| 20260831150824 | 64 | 157 | 0.0 | 0.0 | 0.05 | 0.02 | 0.02 | 97 | 1020.0 |
| 20260831150319 | 64 | 157 | 0.0 | 0.0 | 0.05 | 0.02 | 0.02 | 97 | 1020.0 |
| 20260831145818 | 64 | 157 | 0.0 | 0.0 | 0.07 | 0.01 | 0.01 | 97 | 1020.3 |
| 20260831145315 | 64 | 157 | 0.0 | 0.0 | 0.07 | 0.01 | 0.01 | 96 | 1020.3 |
| 20260831144810 | 64 | 158 | 0.0 | 0.0 | 0.07 | 0.01 | 0.01 | 96 | 1020.2 |
| 20260831144306 | 64 | 157 | 0.0 | 0.0 | 0.00 | 0.00 | 0.00 | 96 | 1020.3 |
| 20260831143806 | 64 | 158 | 0.0 | 0.0 | 0.00 | 0.00 | 0.00 | 96 | 1020.3 |
| 20260831143301 | 64 | 158 | 0.0 | 0.0 | 0.00 | 0.00 | 0.00 | 96 | 1020.1 |
| 20260831142756 | 64 | 158 | 0.0 | 0.0 | 0.00 | 0.00 | 0.00 | 96 | 1020.0 |
| 20260831142252 | 64 | 158 | 0.0 | 0.0 | 0.00 | 0.00 | 0.00 | 96 | 1019.9 |
| 20260831141751 | 64 | 158 | 0.0 | 0.0 | 0.00 | 0.00 | 0.00 | 95 | 1019.4 |
| 20260831141251 | 64 | 158 | 0.0 | 0.0 | 0.00 | 0.00 | 0.00 | 96 | 1019.4 |
| 20260831140746 | 64 | 158 | 0.0 | 0.0 | 0.00 | 0.00 | 0.00 | 96 | 1019.7 |
| 20260831140241 | 64 | 158 | 0.0 | 0.0 | 0.00 | 0.00 | 0.00 | 96 | 1019.4 |
| 20260831135738 | 64 | 158 | 0.0 | 0.0 | 0.00 | 0.00 | 0.00 | 95 | 1019.5 |
| 20260831135234 | 64 | 158 | 0.0 | 0.0 | 0.00 | 0.00 | 0.00 | 95 | 1019.9 |
| 20260831134729 | 64 | 158 | 0.0 | 0.0 | 0.00 | 0.00 | 0.00 | 95 | 1020.0 |
| 20260831134226 | 65 | 158 | 0.0 | 0.0 | 0.00 | 0.00 | 0.00 | 95 | 1019.9 |
| 20260831133725 | 64 | 158 | 0.0 | 0.0 | 0.00 | 0.00 | 0.00 | 95 | 1020.0 |
| 20260831133219 | 64 | 158 | 0.0 | 0.0 | 0.00 | 0.00 | 0.00 | 95 | 1020.0 |
| 20260831132714 | 64 | 159 | 0.0 | 0.0 | 0.00 | 0.00 | 0.00 | 95 | 1020.0 |
| 20260831132209 | 64 | 159 | 0.0 | 0.0 | 0.00 | 0.00 | 0.00 | 95 | 1019.9 |
| 20260831131709 | 64 | 160 | 0.0 | 0.0 | 0.00 | 0.00 | 0.00 | 96 | 1019.9 |
| 20260831131206 | 64 | 162 | 0.0 | 0.0 | 0.00 | 0.00 | 0.00 | 96 | 1019.7 |
| 20260831130700 | 63 | 161 | 0.0 | 0.0 | 0.00 | 0.00 | 0.00 | 96 | 1020.0 |
| 20260831130156 | 63 | 162 | 0.0 | 0.0 | 0.00 | 0.00 | 0.00 | 96 | 1019.8 |
| 20260831125654 | 63 | 162 | 0.0 | 0.0 | 0.00 | 0.00 | 0.00 | 96 | 1019.7 |
| 20260831125150 | 63 | 159 | 0.0 | 0.0 | 0.00 | 0.00 | 0.00 | 96 | 1020.0 |
| 20260831124645 | 63 | 159 | 0.0 | 0.0 | 0.00 | 0.00 | 0.00 | 96 | 1020.2 |
| 20260831124141 | 63 | 159 | 0.0 | 0.0 | 0.00 | 0.00 | 0.00 | 96 | 1020.0 |
| 20260831123636 | 62 | 159 | 0.0 | 0.0 | 0.00 | 0.00 | 0.00 | 96 | 1019.9 |
| 20260831123135 | 62 | 158 | 0.0 | 0.0 | 0.00 | 0.00 | 0.00 | 96 | 1019.7 |
| 20260831122634 | 62 | 158 | 0.0 | 0.0 | 0.00 | 0.00 | 0.00 | 96 | 1019.9 |
| 20260831122131 | 62 | 158 | 0.0 | 0.0 | 0.00 | 0.00 | 0.00 | 97 | 1020.2 |
| 20260831121630 | 62 | 159 | 0.0 | 0.0 | 0.00 | 0.00 | 0.00 | 97 | 1020.1 |
| 20260831121126 | 62 | 159 | 0.0 | 0.0 | 0.00 | 0.00 | 0.00 | 97 | 1019.8 |
| 20260831120621 | 62 | 160 | 0.0 | 0.0 | 0.00 | 0.00 | 0.00 | 97 | 1020.4 |
| 20260831120116 | 62 | 160 | 0.0 | 0.0 | 0.00 | 0.00 | 0.00 | 97 | 1020.3 |
| 20260831115612 | 61 | 159 | 0.0 | 0.0 | 0.00 | 0.00 | 0.00 | 97 | 1020.1 |
| 20260831115107 | 61 | 158 | 0.0 | 0.0 | 0.00 | 0.00 | 0.00 | 97 | 1020.1 |
| 20260831114606 | 61 | 158 | 0.0 | 0.0 | 0.00 | 0.00 | 0.00 | 97 | 1020.3 |
| 20260831114101 | 61 | 159 | 0.0 | 0.0 | 0.00 | 0.00 | 0.00 | 97 | 1020.5 |
| 20260831113600 | 61 | 159 | 0.0 | 0.0 | 0.00 | 0.00 | 0.00 | 97 | 1020.3 |
| 20260831113056 | 61 | 160 | 0.0 | 0.0 | 0.00 | 0.00 | 0.00 | 97 | 1020.3 |
| 20260831112555 | 61 | 160 | 0.0 | 0.0 | 0.00 | 0.00 | 0.00 | 97 | 1020.2 |
| 20260831112051 | 61 | 160 | 0.0 | 0.0 | 0.00 | 0.00 | 0.00 | 97 | 1020.1 |
| 20260831111547 | 61 | 163 | 0.0 | 0.0 | 0.00 | 0.00 | 0.00 | 97 | 1020.1 |
| 20260831111042 | 61 | 161 | 0.0 | 0.0 | 0.00 | 0.00 | 0.00 | 97 | 1020.1 |
| 20260831110537 | 61 | 161 | 0.0 | 0.0 | 0.00 | 0.00 | 0.00 | 97 | 1020.2 |
| 20260831110032 | 61 | 162 | 0.0 | 0.0 | 0.00 | 0.00 | 0.00 | 97 | 1020.2 |
| 20260831105531 | 61 | 162 | 0.0 | 0.0 | 0.00 | 0.00 | 0.00 | 97 | 1020.0 |
| 20260831105026 | 61 | 161 | 0.0 | 0.0 | 0.00 | 0.00 | 0.00 | 97 | 1020.0 |
| 20260831104523 | 61 | 159 | 0.0 | 0.0 | 0.00 | 0.00 | 0.00 | 97 | 1019.8 |
| 20260831104018 | 61 | 160 | 0.0 | 0.0 | 0.00 | 0.00 | 0.00 | 97 | 1020.0 |
| 20260831103513 | 61 | 158 | 0.0 | 0.0 | 0.00 | 0.00 | 0.00 | 97 | 1020.0 |
| 20260831103009 | 61 | 158 | 0.0 | 0.0 | 0.00 | 0.00 | 0.00 | 97 | 1019.7 |
| 20260831102503 | 61 | 159 | 0.0 | 0.0 | 0.00 | 0.00 | 0.00 | 97 | 1019.9 |
| 20260831101958 | 61 | 157 | 0.0 | 0.0 | 0.00 | 0.00 | 0.00 | 97 | 1019.7 |
| 20260831101453 | 61 | 157 | 0.0 | 0.0 | 0.00 | 0.00 | 0.00 | 97 | 1019.9 |
| 20260831100949 | 61 | 161 | 0.0 | 0.0 | 0.00 | 0.00 | 0.00 | 97 | 1019.8 |
| 20260831100445 | 61 | 159 | 0.0 | 0.0 | 0.00 | 0.00 | 0.00 | 97 | 1019.7 |
| 20260831095940 | 61 | 162 | 0.0 | 0.0 | 0.00 | 0.00 | 0.00 | 97 | 1019.9 |
| 20260831095439 | 61 | 162 | 0.0 | 0.0 | 0.00 | 0.00 | 0.00 | 97 | 1019.8 |
| 20260831094934 | 61 | 161 | 0.0 | 0.0 | 0.00 | 0.00 | 0.00 | 97 | 1019.9 |
| 20260831094430 | 61 | 160 | 0.0 | 0.0 | 0.00 | 0.00 | 0.00 | 97 | 1019.4 |
| 20260831093926 | 61 | 162 | 0.0 | 0.0 | 0.00 | 0.00 | 0.00 | 97 | 1019.6 |
| 20260831093420 | 61 | 158 | 0.0 | 0.0 | 0.00 | 0.00 | 0.00 | 97 | 1019.7 |
| 20260831092918 | 61 | 157 | 0.0 | 0.0 | 0.00 | 0.00 | 0.00 | 97 | 1019.6 |
| 20260831092413 | 61 | 158 | 0.0 | 0.0 | 0.00 | 0.00 | 0.00 | 97 | 1019.5 |
| 20260831091908 | 61 | 157 | 0.0 | 0.0 | 0.00 | 0.00 | 0.00 | 97 | 1019.7 |
| 20260831091403 | 61 | 162 | 0.0 | 0.0 | 0.00 | 0.00 | 0.00 | 97 | 1019.7 |
| 20260831090858 | 61 | 161 | 0.0 | 0.0 | 0.00 | 0.00 | 0.00 | 97 | 1019.8 |
| 20260831090354 | 61 | 159 | 0.0 | 0.0 | 0.00 | 0.00 | 0.00 | 97 | 1019.6 |
| 20260831085850 | 61 | 160 | 0.0 | 0.0 | 0.00 | 0.00 | 0.00 | 97 | 1019.7 |
| 20260831085345 | 61 | 162 | 0.0 | 0.0 | 0.00 | 0.00 | 0.00 | 97 | 1020.0 |
| 20260831084844 | 61 | 166 | 0.0 | 0.0 | 0.00 | 0.00 | 0.00 | 97 | 1020.0 |
| 20260831084341 | 61 | 162 | 0.0 | 0.0 | 0.00 | 0.00 | 0.00 | 97 | 1019.9 |
| 20260831083837 | 61 | 161 | 0.0 | 0.0 | 0.00 | 0.00 | 0.00 | 97 | 1019.9 |
| 20260831083332 | 61 | 160 | 0.0 | 0.0 | 0.00 | 0.00 | 0.00 | 97 | 1019.7 |
| 20260831082831 | 61 | 163 | 0.0 | 0.0 | 0.00 | 0.00 | 0.00 | 97 | 1019.9 |
| 20260831082326 | 61 | 160 | 0.0 | 0.0 | 0.00 | 0.00 | 0.00 | 97 | 1020.0 |
| 20260831081822 | 61 | 162 | 0.0 | 0.0 | 0.00 | 0.00 | 0.00 | 97 | 1019.9 |
| 20260831081317 | 61 | 163 | 0.0 | 0.0 | 0.00 | 0.00 | 0.00 | 97 | 1019.9 |
| 20260831080812 | 61 | 164 | 0.0 | 0.0 | 0.00 | 0.00 | 0.00 | 97 | 1019.7 |
| 20260831080307 | 61 | 164 | 0.0 | 0.0 | 0.00 | 0.00 | 0.00 | 97 | 1019.7 |
| 20260831075803 | 61 | 162 | 0.0 | 0.0 | 0.00 | 0.00 | 0.00 | 97 | 1019.8 |
| 20260831075258 | 61 | 164 | 0.0 | 0.0 | 0.00 | 0.00 | 0.00 | 97 | 1019.8 |
| 20260831074758 | 61 | 162 | 0.0 | 0.0 | 0.00 | 0.00 | 0.00 | 97 | 1019.8 |
| 20260831074251 | 61 | 162 | 0.0 | 0.0 | 0.00 | 0.00 | 0.00 | 97 | 1019.6 |
| 20260831073748 | 61 | 165 | 0.0 | 0.0 | 0.00 | 0.00 | 0.00 | 97 | 1019.7 |
| 20260831073246 | 61 | 163 | 0.0 | 0.0 | 0.00 | 0.00 | 0.00 | 97 | 1019.7 |
| 20260831072741 | 61 | 162 | 0.0 | 0.0 | 0.00 | 0.00 | 0.00 | 97 | 1019.8 |
| 20260831072238 | 61 | 163 | 0.0 | 0.0 | 0.00 | 0.00 | 0.00 | 97 | 1019.9 |
| 20260831071738 | 61 | 163 | 0.0 | 0.0 | 0.00 | 0.00 | 0.00 | 97 | 1019.7 |
| 20260831071233 | 61 | 166 | 0.0 | 0.0 | 0.00 | 0.00 | 0.00 | 97 | 1019.8 |
| 20260831070727 | 61 | 167 | 0.0 | 0.0 | 0.00 | 0.00 | 0.00 | 97 | 1019.7 |
| 20260831070221 | 61 | 161 | 0.0 | 0.0 | 0.00 | 0.00 | 0.00 | 97 | 1019.7 |
| 20260831065720 | 61 | 164 | 0.0 | 0.0 | 0.00 | 0.00 | 0.00 | 96 | 1019.8 |
| 20260831065218 | 62 | 161 | 0.0 | 0.0 | 0.00 | 0.00 | 0.00 | 96 | 1019.9 |
| 20260831064713 | 62 | 161 | 0.0 | 0.0 | 0.00 | 0.00 | 0.00 | 96 | 1019.5 |
| 20260831064208 | 62 | 164 | 0.0 | 0.0 | 0.00 | 0.00 | 0.00 | 96 | 1019.9 |
| 20260831063704 | 62 | 161 | 0.0 | 0.0 | 0.00 | 0.00 | 0.00 | 96 | 1019.9 |
| 20260831063154 | 62 | 161 | 0.0 | 0.0 | 0.00 | 0.00 | 0.00 | 96 | 1019.8 |
| 20260831062648 | 62 | 160 | 0.0 | 0.0 | 0.00 | 0.00 | 0.00 | 96 | 1019.8 |
| 20260831062142 | 62 | 161 | 0.0 | 0.0 | 0.00 | 0.00 | 0.00 | 96 | 1019.9 |
| 20260831061640 | 62 | 161 | 0.0 | 0.0 | 0.00 | 0.00 | 0.00 | 96 | 1020.1 |
| 20260831061137 | 62 | 161 | 0.0 | 0.0 | 0.00 | 0.00 | 0.00 | 96 | 1020.0 |
| 20260831060632 | 62 | 160 | 0.0 | 0.0 | 0.00 | 0.00 | 0.00 | 96 | 1020.1 |
| 20260831060126 | 62 | 159 | 0.0 | 0.0 | 0.00 | 0.00 | 0.00 | 96 | 1020.0 |
| 20260831055626 | 62 | 161 | 0.0 | 0.0 | 0.00 | 0.00 | 0.00 | 96 | 1020.1 |
| 20260831055121 | 62 | 163 | 0.0 | 0.0 | 0.00 | 0.00 | 0.00 | 96 | 1020.1 |
| 20260831054621 | 62 | 163 | 0.0 | 0.0 | 0.00 | 0.00 | 0.00 | 96 | 1020.0 |
| 20260831054115 | 62 | 163 | 0.0 | 0.0 | 0.00 | 0.00 | 0.00 | 95 | 1020.2 |
| 20260831053614 | 62 | 164 | 0.0 | 0.0 | 0.00 | 0.00 | 0.00 | 95 | 1020.3 |
| 20260831053108 | 63 | 166 | 0.0 | 0.0 | 0.00 | 0.00 | 0.00 | 95 | 1019.9 |
| 20260831052607 | 63 | 167 | 0.0 | 0.0 | 0.00 | 0.00 | 0.00 | 95 | 1020.3 |
| 20260831052106 | 63 | 169 | 0.0 | 0.0 | 0.00 | 0.00 | 0.00 | 95 | 1020.5 |
| 20260831051604 | 63 | 178 | 0.0 | 0.0 | 0.00 | 0.00 | 0.00 | 95 | 1020.5 |
| 20260831051104 | 63 | 172 | 0.0 | 0.0 | 0.00 | 0.00 | 0.00 | 94 | 1020.3 |
| 20260831050604 | 63 | 168 | 0.0 | 0.0 | 0.00 | 0.00 | 0.00 | 94 | 1020.4 |
| 20260831045602 | 63 | 168 | 0.0 | 0.0 | 0.00 | 0.00 | 0.00 | 93 | 1020.6 |
| 20260831045057 | 63 | 168 | 0.0 | 0.0 | 0.00 | 0.00 | 0.00 | 93 | 1020.5 |
| 20260831044553 | 63 | 169 | 0.0 | 0.0 | 0.00 | 0.00 | 0.00 | 93 | 1020.5 |
| 20260831044048 | 63 | 171 | 0.0 | 0.0 | 0.00 | 0.00 | 0.00 | 94 | 1020.2 |
| 20260831043543 | 63 | 170 | 0.0 | 0.0 | 0.00 | 0.00 | 0.00 | 94 | 1020.4 |
| 20260831043039 | 63 | 170 | 0.0 | 0.0 | 0.00 | 0.00 | 0.00 | 94 | 1020.4 |
| 20260831042538 | 63 | 172 | 0.0 | 0.0 | 0.00 | 0.00 | 0.00 | 94 | 1020.4 |
| 20260831042033 | 63 | 174 | 0.0 | 0.0 | 0.00 | 0.00 | 0.00 | 94 | 1020.3 |
| 20260831041528 | 63 | 171 | 0.0 | 0.0 | 0.00 | 0.00 | 0.00 | 94 | 1020.4 |
| 20260831041027 | 63 | 172 | 0.0 | 0.0 | 0.00 | 0.00 | 0.00 | 94 | 1020.3 |
| 20260831040522 | 63 | 169 | 0.0 | 0.0 | 0.00 | 0.00 | 0.00 | 94 | 1020.5 |
| 20260831040021 | 63 | 173 | 0.0 | 0.0 | 0.00 | 0.00 | 0.00 | 93 | 1020.2 |
| 20260831035514 | 63 | 174 | 0.0 | 0.0 | 0.00 | 0.00 | 0.00 | 93 | 1020.3 |
| 20260831035009 | 63 | 174 | 0.0 | 0.0 | 0.00 | 0.00 | 0.00 | 93 | 1020.3 |
| 20260831034503 | 63 | 175 | 0.0 | 0.0 | 0.00 | 0.00 | 0.00 | 93 | 1020.5 |
| 20260831033959 | 63 | 176 | 0.0 | 0.0 | 0.00 | 0.00 | 0.00 | 93 | 1020.4 |
| 20260831033454 | 63 | 173 | 0.0 | 0.0 | 0.00 | 0.00 | 0.00 | 93 | 1020.3 |
| 20260831032949 | 63 | 179 | 0.0 | 0.0 | 0.00 | 0.00 | 0.00 | 93 | 1020.2 |
| 20260831032444 | 63 | 169 | 0.0 | 0.0 | 0.00 | 0.00 | 0.00 | 93 | 1020.2 |